Location: ?????????
(41.2393°N, 22.9479°E)
Time: 06:05:53
(UTC+00:00)

DELTA 2 R/B (1) - Pass Details

Date: 17 November 2025
Orbit: 786 x 800 km, 39.6° (Epoch: 09 December)

Event Time Altitude Azimuth Distance (km) Brightness Sun altitude
Rises 17:20:03 0° 237° (WSW) 3,272 7.7 -24.9°
Reaches altitude 10° 17:22:36 10° 232° (SW) 2,342 6.7 -25.3°
Enters shadow 17:27:38 47° 168° (SSE) 1,033 4.0 -26.3°
